Orbital Elements at Epoch 2459200.5 (2020-Dec-17.0) TDB
Reference: JPL 20 (heliocentric ecliptic J2000)
Element | Value | Uncertainty (1-sigma) | Units |
e | .04083133837391997 | 4.2152e-08 | |
a | 3.221603262045095 | 2.1797e-08 | au |
q | 3.090060889146008 | 1.379e-07 | au |
i | 3.275198941997026 | 4.8256e-06 | deg |
node | 231.8700066586672 | 9.2216e-05 | deg |
peri | 191.3259949054747 | 0.0001174 | deg |
M | 39.23311539105995 | 7.0914e-05 | deg |
tp | 2458970.325713165183 (2020-Apr-30.82571317) | 0.00041599 | TDB |
period | 2112.061263414635 5.78 | 2.1435e-05 5.869e-08 | d yr |
n | .1704496011720687 | 1.7298e-09 | deg/d |
Q | 3.353145634944183 | 2.2687e-08 | au |
|
| | Orbit Determination Parameters
Additional Information
|